N5CNB Weather Reports


Display with metric or nautical units.
time (UTC)temp
F
wind
direction
speed
MPH
gust
MPH
rain 1hr
in
rain 24hr
in
rain mn
in
humidity
%
barometer
mb
20220520113058 76 191 3.0 7.0 0.00 0.00 0.00 91 1003.4
20220520111601 76 212 2.0 9.0 0.00 0.00 0.00 91 1003.4
20220520110056 76 130 1.0 9.0 0.00 0.00 0.00 91 1003.2
20220520104555 75 109 1.0 7.0 0.00 0.00 0.00 92 1003.0
20220520103051 75 161 3.0 8.0 0.00 0.00 0.00 92 1002.8
20220520101550 75 116 2.0 8.0 0.00 0.00 0.00 92 1002.6
20220520100131 75 84 1.0 6.0 0.00 0.00 0.00 92 1002.6
20220520094549 75 172 1.0 6.0 0.00 0.00 0.00 93 1002.7
20220520093059 75 134 3.0 7.0 0.00 0.00 0.00 93 1002.8
20220520091548 74 187 2.0 8.0 0.00 0.00 0.00 93 1002.6
20220520090059 75 202 3.0 9.0 0.00 0.00 0.00 92 1002.5
20220520084546 75 142 2.0 11.0 0.00 0.00 0.00 92 1002.6
20220520083046 75 200 3.0 7.0 0.00 0.00 0.00 92 1002.6
20220520081544 75 188 2.0 10.0 0.00 0.00 0.00 91 1002.8
20220520080050 75 197 2.0 6.0 0.00 0.00 0.00 91 1002.8
20220520074541 75 213 1.0 9.0 0.00 0.00 0.00 91 1003.1
20220520073041 75 180 3.0 8.0 0.00 0.00 0.00 91 1003.2
20220520071536 75 207 3.0 9.0 0.00 0.00 0.00 91 1003.5
20220520070032 75 159 2.0 8.0 0.00 0.00 0.00 91 1003.8
20220520064528 75 154 2.0 6.0 0.00 0.00 0.00 91 1003.9
20220520063028 74 180 2.0 8.0 0.00 0.00 0.00 91 1004.0
20220520061530 74 180 1.0 5.0 0.00 0.00 0.00 91 1004.1
20220520060024 74 145 1.0 6.0 0.00 0.00 0.00 90 1004.4
20220520054523 74 186 0.0 6.0 0.00 0.00 0.00 90 1004.6
20220520053023 75 145 2.0 9.0 0.00 0.00 0.00 89 1004.8
20220520051520 75 140 2.0 8.0 0.00 0.00 0.00 88 1005.0
20220520050013 75 186 4.0 11.0 0.00 0.00 0.00 88 1005.0
20220520044513 75 165 1.0 10.0 0.00 0.00 0.00 87 1005.0
20220520043016 76 169 3.0 14.0 0.00 0.00 0.00 86 1005.2
20220520041514 76 192 1.0 8.0 0.00 0.00 0.00 86 1005.2
20220520040011 76 186 2.0 7.0 0.00 0.00 0.00 85 1005.2
20220520034513 77 192 2.0 16.0 0.00 0.00 0.00 83 1005.3
20220520033029 77 182 4.0 13.0 0.00 0.00 0.00 82 1005.1
20220520031510 77 64 3.0 14.0 0.00 0.00 0.00 81 1005.0
20220520030012 77 171 4.0 10.0 0.00 0.00 0.00 80 1005.0
20220520024522 78 139 3.0 11.0 0.00 0.00 0.00 79 1004.9
20220520023009 78 219 1.0 8.0 0.00 0.00 0.00 78 1004.6
20220520021514 78 218 4.0 11.0 0.00 0.00 0.00 77 1004.5
20220520020007 79 197 4.0 12.0 0.00 0.00 0.00 75 1004.6
20220520014507 79 180 3.0 14.0 0.00 0.00 0.00 74 1004.3
20220520013015 80 187 4.0 15.0 0.00 0.00 0.00 72 1004.2
20220520011507 81 192 6.0 17.0 0.00 0.00 0.00 71 1004.0
20220520010006 81 155 4.0 16.0 0.00 0.00 0.00 69 1003.7
20220520004505 82 198 5.0 19.0 0.00 0.00 0.00 66 1003.6
20220520003007 83 167 4.0 21.0 0.00 0.00 0.00 64 1003.4
20220520001517 84 178 8.0 18.0 0.00 0.00 0.00 62 1003.7
20220520000002 85 143 8.0 17.0 0.00 0.00 0.00 59 1004.0
20220519234501 86 143 5.0 19.0 0.00 0.00 0.00 59 1004.0
20220519233001 87 115 6.0 14.0 0.00 0.00 0.00 57 1004.0
20220519231501 87 204 6.0 26.0 0.00 0.00 0.00 55 1004.0
20220519230101 88 169 5.0 12.0 0.00 0.00 0.00 55 1003.9
20220519224605 88 159 9.0 18.0 0.00 0.00 0.00 54 1004.1
20220519223101 89 161 7.0 21.0 0.00 0.00 0.00 52 1004.0
20220519221609 90 194 5.0 17.0 0.00 0.00 0.00 52 1004.1
20220519220058 91 198 3.0 23.0 0.00 0.00 0.00 50 1004.2
20220519214556 90 165 8.0 19.0 0.00 0.00 0.00 51 1004.2
20220519213056 91 186 6.0 23.0 0.00 0.00 0.00 50 1004.5
20220519211603 91 71 6.0 19.0 0.00 0.00 0.00 52 1004.6
20220519210057 92 163 7.0 14.0 0.00 0.00 0.00 49 1004.7
20220519204551 91 195 10.0 20.0 0.00 0.00 0.00 50 1004.9
20220519203050 92 224 4.0 20.0 0.00 0.00 0.00 51 1005.0
20220519201550 91 220 4.0 22.0 0.00 0.00 0.00 51 1005.2
20220519200102 91 175 8.0 24.0 0.00 0.00 0.00 50 1005.5
20220519194545 92 98 5.0 13.0 0.00 0.00 0.00 49 1005.9
20220519193041 92 188 6.0 16.0 0.00 0.00 0.00 50 1005.9
20220519191546 91 175 6.0 18.0 0.00 0.00 0.00 50 1006.3
20220519190044 90 174 8.0 21.0 0.00 0.00 0.00 53 1006.4
20220519184539 91 163 8.0 18.0 0.00 0.00 0.00 54 1006.5
20220519183030 89 180 9.0 21.0 0.00 0.00 0.00 54 1006.9
20220519181533 89 168 11.0 21.0 0.00 0.00 0.00 54 1007.2
20220519180026 89 190 6.0 18.0 0.00 0.00 0.00 55 1007.6
20220519174528 88 154 6.0 20.0 0.00 0.00 0.00 57 1007.8
20220519173023 89 139 6.0 18.0 0.00 0.00 0.00 58 1008.1
20220519171533 88 180 6.0 19.0 0.00 0.00 0.00 60 1008.3
20220519170023 86 203 8.0 21.0 0.00 0.00 0.00 62 1008.6
20220519164518 86 171 9.0 18.0 0.00 0.00 0.00 61 1009.0
20220519163034 87 171 3.0 11.0 0.00 0.00 0.00 64 1008.9
20220519161513 86 202 2.0 14.0 0.00 0.00 0.00 67 1009.0
20220519160012 84 180 5.0 15.0 0.00 0.00 0.00 69 1009.1
20220519154514 84 244 5.0 14.0 0.00 0.00 0.00 70 1009.1
20220519153006 82 182 5.0 12.0 0.00 0.00 0.00 76 1009.5
20220519151505 81 169 7.0 15.0 0.00 0.00 0.00 76 1009.5
20220519150005 81 186 6.0 11.0 0.00 0.00 0.00 76 1009.6
20220519144601 81 174 5.0 18.0 0.00 0.00 0.00 79 1009.8
20220519143112 79 183 4.0 12.0 0.00 0.00 0.00 83 1010.1
20220519141558 78 175 5.0 12.0 0.00 0.00 0.00 86 1010.0
20220519140051 77 183 3.0 14.0 0.00 0.00 0.00 89 1010.1
20220519134548 76 171 1.0 7.0 0.00 0.00 0.00 91 1010.0
20220519133048 75 160 1.0 9.0 0.00 0.00 0.00 92 1010.0
20220519131543 75 188 2.0 8.0 0.00 0.00 0.00 93 1009.9
20220519130042 74 188 2.0 6.0 0.00 0.00 0.00 94 1009.8
20220519124541 73 188 1.0 4.0 0.00 0.00 0.00 94 1009.8
20220519123041 73 173 0.0 3.0 0.00 0.00 0.00 94 1009.6
20220519121545 73 196 0.0 2.0 0.00 0.00 0.00 94 1009.4
20220519120047 73 167 0.0 3.0 0.00 0.00 0.00 94 1009.3
20220519114540 72 179 1.0 5.0 0.00 0.00 0.00 94 1009.2